Warning: Javascript must be enabled to use all the features on this page!


Page Loading - Please Wait...

Click to hideNews Bulletins

Peak Streamflow for the Nation

USGS 07263012 Fourche LaFave River near Aplin, AR

Perry County, Arkansas
Hydrologic Unit Code 11110206
Latitude  34°57'24", Longitude  92°59'06" NAD83
Drainage area 957  square miles
Gage datum 269.09 feet above NGVD29
Output formats
Table
Graph
Tab-separated file
peakfq (watstore) format
Reselect output format
Water
Year
Date Gage
Height
(feet)
Stream-
flow
(cfs)
1980 1979-12-24 15.28 5,7906
1981 1981-06-16 15.25 5,7006
1982 1982-03-14 24.36 10,4006
1983 1982-12-03 36.10  
1984 1983-12-03 22.98 9,4606
1985 1984-10-20 33.79 24,7006
1986 1985-12-11 21.65 8,5906
1987 1987-03-05 19.43 7,4606
1988 1987-11-16 23.07 9,5206
1989 1989-02-15 26.49 12,3006
1990 1990-05-02 30.33 17,8006
1991 1991-04-27 26.97 12,7006
1992 1991-12-01 22.15 8,8906
1993 1993-05-10 24.44 10,5006
1994 1993-12-03 28.08 18,3006
1995 1995-05-08 20.09 10,3006
1996 1996-06-07 17.69 8,5706
1997 1996-11-25   17,5002,6
1998 1998-02-11 25.24 12,6006
1999 1999-01-02 22.49 12,3006
2000 1999-12-13 15.73 7,1606
2001 2001-02-16 27.12 15,4006
2002 2001-12-17 29.24 17,2006
2003 2003-05-17 28.14 14,5006
2004 2004-04-22 26.19 13,0006
2005 2004-11-01 23.77 11,3006
2006 2006-03-20 27.09 13,7006
2007 2007-01-15 28.58 14,8006
2008 2008-09-03 31.73 17,1006
2009 2009-09-17 31.23 17,7006
2010 2009-12-24 30.08 15,9006
2011 2011-04-26 30.56 16,2006
2012 2011-11-22 28.31 14,6006
2013 2013-01-13 26.14 13,0006
2014 2014-06-09 18.60 7,9506
2015 2015-05-11 27.20 14,4006
2016 2015-12-28 33.97 20,7006
2017 2017-04-30 28.15 13,5006
2018 2018-02-23 28.55 15,3006
2019 2019-02-11 27.81 14,8006
2020 2020-09-01 23.41 11,9006
2021 2021-05-17 20.88 10,2006
?
  Peak Streamflow Qualification Codes.